This is the latest recevied weather packets stored in our database for station/object KD0KHX-10. If no packets are shown the sender has not sent any weather packets the latest 10 day(s).
| Time | Temp. | Humidity | Pressure | Rain* | Wind** | Luminosity | Snow |
|---|---|---|---|---|---|---|---|
| 1777883373 | 7.78° C | 65% | 1000.5 hPa | 0 mm | - | - | - |
| 1777882203 | 7.22° C | 66% | 1000.8 hPa | 0 mm | - | - | - |
| 1777882038 | 7.22° C | 66% | 1000.9 hPa | 0 mm | - | - | - |
| 1777881603 | 6.67° C | 67% | 1001.1 hPa | 0 mm | - | - | - |
| 1777881573 | 6.67° C | 67% | 1001.1 hPa | 0 mm | - | - | - |
| 1777880973 | 6.67° C | 67% | 1001 hPa | 0 mm | - | - | - |
| 1777880403 | 6.11° C | 67% | 1001 hPa | 0 mm | - | - | - |
| 1777880373 | 6.11° C | 66% | 1001 hPa | 0 mm | - | - | - |
| 1777879803 | 6.67° C | 64% | 1001.3 hPa | 0 mm | - | - | - |
| 1777879503 | 6.67° C | 63% | 1001.2 hPa | 0 mm | - | - | - |
| 1777879203 | 7.22° C | 63% | 1001.2 hPa | 0 mm | - | - | - |
| 1777878903 | 7.22° C | 61% | 1001.3 hPa | 0 mm | - | - | - |
| 1777878738 | 7.22° C | 61% | 1001.3 hPa | 0 mm | - | - | - |
| 1777878437 | 7.78° C | 61% | 1001.3 hPa | 0 mm | - | - | - |
| 1777878003 | 8.33° C | 60% | 1001.2 hPa | 0 mm | - | - | - |
| 1777877972 | 8.33° C | 59% | 1001.2 hPa | 0 mm | - | - | - |
| 1777877538 | 8.89° C | 60% | 1001.2 hPa | 0 mm | - | - | - |
| 1777877103 | 9.44° C | 55% | 1001.3 hPa | 0 mm | - | - | - |
| 1777876803 | 10.56° C | 55% | 1001.4 hPa | 0 mm | - | - | - |
| 1777876772 | 10.56° C | 55% | 1001.4 hPa | 0 mm | - | - | - |
| 1777876203 | 10.56° C | 55% | 1001.4 hPa | 0 mm | - | - | - |
| 1777876172 | 10.56° C | 54% | 1001.4 hPa | 0 mm | - | - | - |
| 1777875603 | 11.11° C | 54% | 1001.4 hPa | 0 mm | - | - | - |
| 1777875303 | 11.11° C | 54% | 1001.4 hPa | 0 mm | - | - | - |
| 1777875273 | 11.11° C | 54% | 1001.4 hPa | 0 mm | - | - | - |
* Rain latest hour (hover to see other rain measurements)
** Current wind speed in m/s (hover to see current wind gust speed)